This demonstration page uses our WeatherBlox Daily Observations layout. Learn more.

Left ArrowRight Arrow

40.97296, -117.73568

Hourly Observations for August 28, 2022

Temp ( °F °C ) Dew Point ( °F °C ) Humidity (%) Winds ( mph kmh ) Pressure ( in mb ) Visibility ( mi km ) Precip ( " mm )
12:56 am 00:56 Clear 63 17.2 N/A N/A NW 7 11 29.77 1008 10 16 0.00 0.00
1:56 am 01:56 Clear 58 14.4 N/A N/A WNW 6 9 29.79 1009 10 16 0.00 0.00
2:56 am 02:56 Clear 54 12.2 N/A N/A S 3 6 29.80 1009 10 16 0.00 0.00
3:56 am 03:56 Clear 51 10.6 N/A N/A VRB 5 7 29.83 1010 10 16 0.00 0.00
4:56 am 04:56 Clear 50 10 N/A N/A SSE 8 13 29.85 1011 10 16 0.00 0.00
5:56 am 05:56 Clear 51 10.6 N/A N/A ESE 3 6 29.85 1011 10 16 0.00 0.00
6:56 am 06:56 Sunny 49 9.4 N/A N/A ESE 3 6 29.88 1012 10 16 0.00 0.00
7:56 am 07:56 Sunny 60 15.6 N/A N/A S 6 9 29.88 1012 10 16 0.00 0.00
8:56 am 08:56 Sunny 70 21.1 N/A N/A Calm 29.89 1012 10 16 0.00 0.00
9:56 am 09:56 Sunny 76 24.4 N/A N/A VRB 5 7 29.88 1012 10 16 0.00 0.00
10:56 am 10:56 Sunny 81 27.2 N/A N/A VRB 5 7 29.86 1011 10 16 0.00 0.00
11:56 am 11:56 Sunny 86 30 N/A N/A undefined N/A 29.85 1011 10 16 0.00 0.00
12:56 pm 12:56 Sunny 90 32.2 N/A N/A WNW 10 17 29.83 1010 10 16 0.00 0.00
1:56 pm 13:56 Sunny 90 32.2 N/A N/A VRB 5 7 29.81 1010 10 16 0.00 0.00
2:56 pm 14:56 Sunny 90 32.2 N/A N/A VRB 3 6 29.81 1009 10 16 0.00 0.00
3:56 pm 15:56 Sunny 89 31.7 N/A N/A NNW 7 11 29.80 1009 10 16 0.00 0.00
4:56 pm 16:56 Sunny 90 32.2 N/A N/A NNW 8 13 29.79 1009 10 16 0.00 0.00
5:56 pm 17:56 Sunny 90 32.2 N/A N/A NNW 5 7 29.78 1009 10 16 0.00 0.00
6:56 pm 18:56 Sunny 85 29.4 N/A N/A NNW 6 9 29.80 1009 10 16 0.00 0.00
7:56 pm 19:56 Clear 76 24.4 N/A N/A N 6 9 29.81 1009 10 16 0.00 0.00
8:56 pm 20:56 Clear 68 20 N/A N/A W 3 6 29.82 1010 10 16 0.00 0.00
9:56 pm 21:56 Clear 63 17.2 N/A N/A N 3 6 29.83 1010 10 16 0.00 0.00
10:56 pm 22:56 Clear 55 12.8 N/A N/A S 5 7 29.84 1011 10 16 0.00 0.00
11:56 pm 23:56 Clear 56 13.3 N/A N/A ESE 6 9 29.85 1011 10 16 0.00 0.00

Powered by AerisWeather